Location: Newark
(42.4678°N, 122.8017°W)
Time: 23:38:54
(UTC+00:00)

N. Korean satellite - Pass Details

Date: 05 October 2020
Orbit: 452 x 505 km, 97.2° (Epoch: 29 October)

Event Time Altitude Azimuth Distance (km) Brightness Sun altitude
Rises 02:06:10 0° 214° (SW) 2,595 10.8 -4.5°
Reaches altitude 10° 02:09:32 10° 248° (WSW) 1,718 10.8 -5.1°
Maximum altitude 02:10:52 12° 270° (W) 1,620 11.1 -5.4°
Drops below altitude 10° 02:12:13 10° 291° (WNW) 1,722 10.7 -5.6°
Sets 02:15:37 0° 325° (NW) 2,609 10.8 -6.2°
